Temp_Advection
nan nan nan nan nan nan nan nan nan nan nan nan nan nan nan nan nan nan nan nan nan nan nan nan nan nan nan nan nan nan nan nan nan nan nan nan nan nan nan nan nan nan nan
nan -2 -2 -1 -1 -1 -3 -3 -3 -2 -1 -2 -2 -1 -1 -1 -0 -0 -1 -1 -0 0 0 -0 -0 -0 0 0 0 -0 -0 0 0 0 0 0 -0 -0 0 0 0 -0 nan
nan -1 -1 -2 -2 -2 -1 -1 -2 -3 -2 -1 -1 -2 -1 -1 -1 -1 -1 -1 -0 -0 0 0 -0 -1 -0 0 -0 -0 0 0 0 0 0 0 -0 0 0 0 0 -0 nan
nan 1 1 1 1 -1 -2 -2 -1 -1 -2 -3 -3 -1 -1 -2 -2 -2 -2 -1 -0 -0 -0 -0 -1 -1 -1 -0 0 0 0 0 0 0 0 0 0 0 0 0 0 0 nan
nan 0 1 1 2 2 0 -1 -1 -2 -2 -2 -3 -3 -2 -2 -4 -2 -1 -2 -2 -1 -0 -0 -0 -1 -1 -1 -0 0 0 0 0 0 0 0 0 0 0 0 0 0 nan
nan -1 -1 -1 -0 0 1 0 -0 -1 -1 -1 -2 -2 -4 -2 -2 -3 -2 -1 -2 -2 -1 -1 -1 -0 -1 -1 -0 0 0 0 0 0 0 0 0 0 0 0 0 0 nan
nan -1 -1 -1 -1 -1 -1 -0 -0 -0 -0 -1 -1 -2 -3 -4 -1 -1 -2 -2 -1 -1 -2 -1 -0 -1 -1 -0 -1 -0 0 0 0 0 0 0 0 0 0 0 0 0 nan
nan 0 -0 -0 -0 -0 -0 -0 -0 -0 -0 -0 -1 -2 -2 -2 -1 -0 -1 -1 -1 -0 -0 -2 -2 -0 0 -0 -0 -0 -0 -0 0 0 0 1 0 0 1 0 0 0 nan
nan 0 0 -0 -0 -0 -0 -0 -0 -0 -0 -0 -0 -1 -1 -0 -4 -3 -0 -0 -0 -0 -0 -1 -1 -0 -1 -2 -2 -1 -1 -0 0 1 1 0 0 1 0 0 0 0 nan
nan 0 0 0 -0 -0 -0 -0 -0 -0 -0 -0 -0 -0 -0 -1 -1 -2 -4 -3 -0 -1 -1 -2 -1 -0 -2 -1 -1 -1 0 0 -0 1 1 1 0 -0 0 0 0 0 nan
nan 0 0 0 0 -0 -0 -0 -0 -0 -0 -0 -0 -0 -0 -1 -1 -1 -1 -3 -3 -1 -2 -4 -2 -1 -1 -0 -0 0 -1 -0 0 0 1 0 -0 0 1 -0 0 0 nan
nan 0 0 0 0 0 -0 -0 -0 -0 -0 -0 -0 -0 -0 -1 -1 -1 -1 -1 -3 -4 -3 -3 -3 -1 -1 -1 -0 -2 -1 -0 -0 1 1 0 0 0 0 0 0 0 nan
nan -0 -0 0 -0 -0 0 -0 -0 -0 -0 -0 -0 -0 -0 -0 -0 -0 -1 -1 -1 -2 -5 -5 -2 -2 -2 -1 -2 -3 -1 -0 -0 -0 1 0 0 0 0 0 0 0 nan
nan -0 -0 -0 -0 -0 -0 -0 -0 -0 -0 -0 -0 -0 -0 -0 -0 -0 -0 -0 -0 -2 -3 -3 -2 -1 -2 -2 -2 -2 1 1 0 0 -0 0 1 0 -0 -0 1 0 nan
nan -0 0 -0 -0 -0 -0 -0 -0 -0 -0 -0 -0 -0 -0 -0 -0 -0 -0 -0 -0 -1 -2 -3 -1 -1 -0 -1 -2 0 -0 -1 1 2 1 0 0 -0 -1 0 1 0 nan
nan -0 -0 -0 -0 -0 -0 -0 -0 -0 -0 -0 -0 -0 -0 -0 -0 -0 -0 -0 -0 -0 -1 -2 -2 -2 -4 -4 -1 -1 -2 -2 0 -0 -2 -0 0 0 -0 0 0 0 nan
nan -0 -0 0 -0 -0 -0 -0 -0 -0 -0 -0 -0 -0 -0 -0 -0 -0 -0 -0 -0 -1 -1 -1 -1 -1 -2 -4 -3 -1 -3 -3 -1 -1 -2 0 -0 0 -0 -0 0 1 nan
nan 1 0 -0 -0 -0 -0 -0 -0 -0 -0 -0 -0 -0 -0 -0 -0 -0 -0 -0 -0 -1 -1 -1 -1 -1 -1 -3 -4 -1 -1 -4 -2 -3 -1 0 -1 0 -0 0 1 0 nan
nan 1 1 1 0 -0 -0 -0 -0 -0 0 0 0 -0 -0 -0 -0 -0 -0 -0 -1 -1 -1 -1 -0 -1 -1 -1 -2 -4 -2 -0 -2 -3 -2 -2 -1 -0 0 0 0 0 nan
nan 0 0 0 -0 -0 -0 -0 0 0 0 0 0 0 0 0 -0 -0 -0 -0 -0 -1 -1 -1 -1 -1 -1 -1 -1 -2 -2 -2 -4 -2 -2 -3 -1 -0 0 0 0 0 nan
nan -0 0 -0 0 0 0 -0 -0 0 1 1 1 0 1 0 -0 -0 -0 -0 -0 -1 -1 -1 -0 -1 -1 -1 -1 -0 -1 -2 -4 -3 -3 -1 -1 0 1 1 -1 0 nan
nan -0 -0 -0 -0 -0 0 -0 -1 -1 0 2 2 1 1 0 0 -0 -0 -0 -0 -1 -1 -1 -0 -1 -1 -1 -1 -1 -0 -1 -2 -2 -3 -1 -2 -0 -0 -1 -1 1 nan
nan -1 -0 -0 -0 -0 -1 -1 -1 -0 0 1 1 1 1 0 -0 -0 -0 -0 -0 -0 -0 -0 -1 -1 -1 -1 -1 -1 -0 -0 -1 -2 -3 -3 -1 -3 -1 -1 -0 -0 nan
nan -0 -1 -0 -0 -0 -0 -1 -1 -1 -0 0 1 1 0 0 0 0 0 0 -0 -0 -0 -1 -1 -1 -1 -1 -1 -1 -1 -0 -0 -1 -2 -3 -2 -3 -2 -0 -1 -1 nan
nan -1 -1 -0 -0 -0 -0 -1 -1 -1 -0 -0 0 1 1 0 0 -0 0 0 0 -0 -0 -0 -0 -1 -1 -1 -1 -0 -0 -1 -1 -1 -1 -3 -2 -2 -3 -1 -1 -1 nan
nan nan nan nan nan nan nan nan nan nan nan nan nan nan nan nan nan nan nan nan nan nan nan nan nan nan nan nan nan nan nan nan nan nan nan nan nan nan nan nan nan nan nan
Wind_Speed
24 25 26 25 26 25 23 24 27 28 26 26 26 27 28 28 28 30 33 36 35 34 30 29 31 33 31 29 30 27 26 27 29 29 29 26 23 17 16 16 21 19 23
21 21 21 20 22 24 26 26 25 26 28 27 27 27 29 31 31 32 34 36 38 38 36 32 34 34 35 32 31 32 29 29 30 32 32 30 26 20 18 14 19 22 21
24 24 22 19 18 20 22 25 24 24 25 27 29 29 30 31 33 35 35 37 37 41 41 37 36 38 38 37 34 32 33 31 31 33 35 33 30 26 21 18 15 23 24
25 26 24 23 23 24 23 21 22 24 26 27 28 31 32 33 35 36 37 38 41 41 43 42 36 40 41 41 38 35 35 35 33 34 36 35 34 31 27 23 20 22 29
24 25 26 27 28 27 22 19 20 22 26 28 28 29 32 37 37 38 39 40 40 43 43 44 39 35 43 43 44 40 36 37 37 37 38 38 35 35 32 27 24 25 29
20 21 21 23 25 26 25 22 22 21 22 23 25 30 34 34 35 38 38 40 41 42 42 44 45 41 40 46 46 45 42 38 39 39 41 40 38 37 35 32 27 27 32
15 15 16 17 18 19 20 22 23 22 22 22 27 26 33 34 26 26 28 32 36 41 43 43 42 45 40 46 49 48 48 44 40 40 43 43 42 41 39 36 30 28 31
17 17 17 17 17 18 18 18 18 21 21 19 21 27 18 21 20 22 19 20 17 23 28 34 44 46 44 36 49 51 50 50 46 43 42 44 45 44 41 40 35 31 31
19 19 18 17 17 16 18 18 18 18 21 18 16 13 13 10 30 21 18 16 19 25 23 27 33 40 45 48 51 52 53 53 52 49 43 42 53 43 42 44 39 35 33
20 19 18 17 17 17 18 18 17 18 18 21 19 17 20 24 23 22 24 26 23 24 31 32 30 40 45 41 45 54 55 55 53 53 48 46 42 43 45 46 44 41 37
18 19 19 19 18 17 19 19 20 20 21 22 22 22 21 22 23 28 31 36 32 31 32 31 38 35 34 52 30 42 54 55 56 54 51 49 46 41 41 51 48 46 41
19 18 18 18 19 20 20 20 20 21 22 23 24 24 25 25 24 25 29 30 37 41 37 35 34 39 31 33 49 38 47 53 53 54 53 50 49 46 40 52 47 49 45
20 20 19 20 21 21 22 22 23 24 23 25 25 26 27 28 27 27 28 31 36 40 39 39 32 31 32 31 26 45 32 42 51 53 54 53 52 49 44 52 47 50 50
22 21 22 22 22 22 24 24 26 26 26 26 26 27 28 29 28 28 28 27 33 39 36 34 26 27 30 30 26 22 29 43 51 49 53 55 54 53 48 50 56 50 50
21 22 23 24 24 25 25 25 28 28 28 28 29 30 30 31 30 29 30 29 27 33 39 26 16 16 20 25 33 25 14 20 43 50 54 57 58 55 51 49 54 55 54
22 23 24 25 26 26 27 27 29 29 29 30 29 30 31 32 30 30 30 30 30 32 40 34 33 31 38 39 40 41 40 23 18 32 52 55 60 54 52 49 52 61 56
22 24 25 26 28 28 27 28 29 30 31 32 31 32 33 32 32 31 31 31 31 31 36 44 36 35 33 37 37 40 47 32 25 14 48 48 54 56 59 57 55 57 56
24 24 25 27 28 29 29 30 32 32 33 33 33 33 33 32 33 33 33 34 35 36 36 43 38 37 34 31 37 36 40 43 33 28 28 49 62 60 60 61 58 57 61
24 25 26 27 28 29 30 31 32 34 36 37 37 36 36 34 35 33 33 33 31 31 31 33 39 35 34 27 31 33 40 45 39 35 18 32 62 60 64 62 58 56 60
24 25 26 25 27 27 28 30 31 33 35 37 37 37 37 36 36 35 34 35 33 32 32 32 37 32 31 27 27 28 31 37 44 31 25 23 39 53 60 61 61 57 58
23 25 24 24 24 24 28 30 32 37 36 35 35 36 36 35 34 33 33 34 32 32 32 29 32 29 27 21 21 21 24 25 38 35 31 12 21 39 56 60 62 58 58
23 23 23 22 23 24 25 27 31 36 39 41 42 38 35 30 30 31 33 34 34 33 32 27 30 32 26 21 20 22 21 24 27 25 31 28 17 19 39 63 64 61 57
24 21 22 22 23 24 24 27 29 30 30 31 35 37 39 37 32 33 30 31 35 36 38 37 38 36 29 23 20 20 21 25 25 30 34 41 29 24 25 45 69 64 59
22 22 21 21 23 22 23 26 27 29 30 28 29 31 32 33 33 32 32 32 32 32 35 36 40 42 39 37 32 25 21 21 23 24 28 37 33 31 15 33 50 71 66
23 22 19 21 21 22 23 24 24 24 27 23 22 27 28 31 34 29 31 33 32 31 28 28 31 33 33 33 31 32 31 26 29 27 22 27 33 38 22 19 35 60 69
23 21 20 20 19 21 21 23 23 26 26 25 22 23 26 27 27 28 29 33 35 35 32 30 29 28 29 32 30 32 34 30 25 22 13 15 9 14 13 5 15 42 62
Wind_Direction
331 331 331 332 329 321 314 306 303 300 290 284 278 271 267 264 258 256 250 243 236 239 242 244 243 241 240 238 238 238 235 227 222 222 226 223 216 227 229 224 226 190 199
334 329 325 320 321 322 322 317 309 302 299 292 283 278 272 267 263 259 256 249 241 239 239 241 242 241 240 241 236 234 234 233 229 222 225 224 221 218 228 242 218 193 206
332 331 328 326 321 311 311 317 317 308 298 294 292 285 278 273 265 261 257 253 249 242 241 241 241 241 240 237 237 236 234 232 233 226 224 226 225 221 223 230 222 198 206
323 322 321 322 321 323 322 317 313 312 310 302 293 289 286 276 270 266 261 258 250 248 243 241 244 242 241 238 236 236 234 231 230 232 224 227 226 225 224 225 229 220 210
310 311 313 314 314 316 318 321 316 313 307 305 304 294 286 282 277 271 268 263 259 249 248 243 237 245 241 239 235 235 235 232 232 233 229 229 229 226 229 224 228 226 216
311 307 302 301 305 308 311 310 312 310 308 308 304 298 296 285 283 279 273 270 265 259 248 249 245 241 244 238 237 233 234 234 232 232 234 230 229 229 230 227 229 225 218
306 305 305 305 306 304 303 307 310 312 311 311 315 305 293 296 290 292 289 281 277 269 261 247 248 238 248 241 236 233 231 232 233 234 234 233 232 232 233 229 228 226 222
306 307 300 300 299 299 300 302 304 303 304 311 309 313 312 298 271 262 257 258 270 261 259 258 246 245 239 242 238 234 231 231 233 235 235 236 234 232 232 229 229 228 227
304 303 297 296 293 292 294 296 296 295 298 301 299 293 313 303 323 284 262 249 258 244 245 240 244 239 246 248 249 241 234 231 231 233 235 238 233 230 229 230 232 229 228
301 297 296 295 293 294 289 287 287 286 290 293 294 283 273 282 290 301 289 268 268 268 253 247 240 235 235 237 246 238 237 233 232 232 232 235 237 236 232 232 233 230 229
296 297 296 295 293 292 288 286 286 285 283 282 283 286 284 280 276 277 286 299 289 273 271 261 244 247 238 235 241 237 241 236 232 233 231 232 233 230 234 238 231 231 229
296 294 294 292 290 289 288 286 284 280 278 277 276 275 276 276 277 280 285 286 292 283 282 273 269 251 261 248 247 249 231 238 236 232 234 232 232 232 227 225 228 229 229
296 294 293 291 289 287 284 282 281 278 275 273 272 272 271 272 272 274 278 284 288 289 291 281 284 274 269 264 272 242 237 226 240 235 233 234 233 230 225 230 234 240 227
292 293 292 292 290 287 284 281 279 277 276 273 272 270 270 269 270 271 272 279 286 289 291 287 286 273 275 264 268 244 222 226 220 233 238 231 233 229 227 231 230 228 231
291 291 290 290 289 285 282 279 276 276 271 268 268 268 267 267 266 267 266 267 271 284 290 291 283 269 247 259 262 255 274 241 214 221 227 234 230 231 229 231 226 228 230
291 291 290 288 286 283 280 279 276 274 273 270 267 267 266 266 265 263 263 264 263 265 275 279 282 287 287 275 271 276 280 274 226 225 227 227 229 224 228 230 232 221 226
294 291 288 286 286 285 283 277 275 272 270 269 267 264 263 263 264 263 264 263 264 263 268 278 281 286 289 284 285 281 277 278 278 253 222 224 229 230 230 226 229 229 227
298 296 294 291 288 286 285 280 278 275 271 269 268 268 267 266 263 262 260 261 260 260 267 275 282 286 288 296 288 286 278 281 278 285 221 218 220 225 227 225 225 231 230
300 301 299 296 291 288 283 281 278 277 275 272 270 266 264 261 260 260 262 261 262 263 264 269 278 283 287 288 290 289 279 283 277 278 260 241 218 218 225 222 223 229 232
302 305 302 297 294 292 289 287 285 282 276 274 271 268 266 261 258 258 257 256 257 261 264 266 274 280 286 295 297 297 297 286 277 277 285 260 231 219 224 221 224 225 225
305 305 304 302 302 303 299 294 290 287 284 277 271 267 266 262 259 256 254 255 255 257 258 263 269 274 279 286 281 289 286 292 281 278 284 279 247 217 224 219 221 224 225
307 308 310 308 305 300 300 293 288 290 287 280 274 270 271 265 259 258 255 253 252 252 254 259 264 268 270 273 286 291 298 303 302 275 274 270 306 223 217 219 219 222 223
306 309 312 307 306 304 303 302 300 301 299 282 275 272 267 260 256 259 259 258 254 252 252 257 257 260 265 263 270 283 285 285 284 285 283 281 289 296 215 214 222 223 222
314 310 307 312 310 306 308 309 308 311 321 306 276 269 266 266 261 257 256 259 258 258 252 250 252 261 264 269 269 270 266 264 273 280 275 279 287 292 253 206 220 221 220
314 312 310 310 312 317 314 315 317 319 326 320 316 281 270 264 261 255 254 255 255 257 260 256 256 257 259 260 262 270 270 273 279 280 277 279 285 287 299 246 214 221 223
313 313 314 316 320 320 324 322 324 328 325 325 316 313 292 270 270 256 251 251 254 257 258 262 259 256 256 259 259 257 264 261 262 277 290 267 297 284 311 240 197 213 224
Height
1504 1502 1500 1497 1494 1492 1492 1492 1490 1489 1489 1490 1490 1491 1492 1492 1493 1493 1494 1497 1500 1502 1505 1507 1509 1513 1515 1518 1521 1524 1526 1528 1529 1531 1533 1536 1538 1540 1542 1544 1545 1548 1551
1502 1502 1501 1498 1495 1491 1489 1489 1488 1486 1485 1485 1484 1485 1485 1486 1486 1486 1488 1490 1492 1495 1497 1500 1503 1505 1509 1512 1515 1519 1522 1523 1525 1527 1529 1532 1535 1537 1540 1541 1543 1546 1549
1498 1497 1496 1495 1493 1492 1490 1487 1484 1481 1482 1480 1477 1477 1478 1478 1478 1480 1479 1482 1484 1487 1490 1493 1496 1498 1502 1505 1509 1512 1515 1518 1520 1522 1525 1527 1531 1533 1536 1539 1540 1543 1546
1497 1495 1494 1491 1486 1484 1483 1482 1480 1476 1475 1475 1473 1471 1471 1471 1470 1471 1472 1474 1476 1479 1482 1485 1490 1492 1494 1497 1501 1505 1508 1511 1514 1516 1520 1522 1526 1530 1532 1535 1538 1540 1543
1497 1493 1491 1488 1485 1483 1481 1479 1478 1475 1473 1471 1467 1465 1463 1462 1463 1464 1464 1466 1467 1470 1474 1477 1481 1484 1487 1489 1494 1498 1501 1505 1508 1510 1514 1517 1520 1525 1528 1531 1534 1536 1538
1493 1491 1490 1488 1485 1481 1480 1478 1475 1476 1474 1469 1463 1460 1456 1456 1456 1455 1457 1459 1460 1462 1466 1469 1472 1475 1477 1480 1484 1489 1494 1497 1500 1502 1507 1511 1514 1519 1523 1526 1529 1532 1534
1492 1490 1487 1485 1483 1482 1479 1475 1473 1471 1469 1467 1460 1455 1452 1451 1451 1450 1449 1451 1453 1455 1457 1460 1463 1466 1468 1471 1474 1479 1484 1488 1492 1495 1498 1503 1507 1512 1517 1520 1523 1527 1530
1488 1486 1484 1481 1479 1478 1475 1474 1472 1471 1469 1466 1461 1457 1448 1446 1447 1442 1445 1449 1451 1451 1448 1449 1451 1457 1458 1460 1465 1469 1474 1479 1483 1487 1490 1494 1499 1504 1509 1514 1518 1521 1525
1483 1481 1480 1477 1476 1474 1472 1470 1470 1469 1466 1463 1462 1463 1456 1446 1441 1440 1437 1439 1438 1438 1437 1437 1439 1442 1447 1452 1455 1459 1462 1467 1472 1478 1482 1486 1489 1495 1500 1506 1511 1516 1519
1479 1477 1475 1473 1471 1468 1468 1468 1467 1465 1461 1458 1457 1458 1457 1451 1449 1435 1433 1432 1433 1433 1429 1429 1430 1433 1436 1438 1441 1444 1450 1456 1461 1467 1472 1478 1480 1486 1491 1498 1503 1509 1512
1475 1473 1470 1468 1466 1464 1462 1462 1460 1458 1456 1455 1454 1452 1450 1448 1447 1442 1431 1425 1424 1425 1422 1423 1421 1422 1426 1430 1433 1434 1438 1444 1451 1456 1462 1468 1474 1477 1481 1488 1495 1501 1505
1470 1468 1466 1464 1461 1459 1457 1456 1454 1453 1452 1450 1449 1448 1447 1445 1441 1439 1433 1430 1421 1414 1416 1414 1415 1416 1415 1415 1417 1413 1426 1433 1439 1445 1451 1457 1463 1468 1471 1478 1485 1492 1497
1464 1462 1460 1458 1455 1453 1451 1449 1448 1446 1446 1444 1443 1441 1440 1437 1436 1434 1430 1425 1419 1411 1409 1408 1410 1409 1409 1409 1411 1409 1403 1420 1428 1434 1440 1445 1452 1458 1463 1470 1473 1480 1487
1458 1456 1453 1451 1448 1447 1445 1443 1441 1440 1438 1437 1436 1435 1433 1431 1429 1427 1425 1424 1416 1408 1403 1402 1404 1401 1403 1403 1402 1402 1401 1405 1409 1420 1427 1433 1440 1447 1454 1460 1466 1470 1473
1453 1450 1447 1443 1442 1440 1438 1437 1434 1432 1431 1429 1428 1426 1425 1423 1423 1422 1419 1418 1416 1408 1397 1396 1398 1397 1395 1396 1396 1391 1387 1395 1393 1403 1407 1418 1427 1435 1442 1449 1456 1462 1467
1446 1443 1440 1437 1435 1433 1431 1429 1427 1425 1423 1421 1420 1418 1416 1415 1414 1414 1413 1412 1411 1409 1396 1393 1391 1392 1388 1389 1384 1386 1387 1387 1386 1390 1397 1403 1411 1421 1430 1438 1446 1450 1457
1439 1436 1433 1430 1427 1425 1423 1422 1419 1417 1415 1413 1412 1410 1408 1408 1405 1405 1404 1403 1401 1400 1392 1382 1386 1386 1385 1382 1379 1381 1376 1374 1378 1381 1384 1390 1401 1408 1417 1425 1434 1443 1447
1432 1429 1426 1424 1421 1418 1416 1414 1411 1410 1408 1405 1403 1402 1399 1399 1397 1396 1395 1394 1392 1391 1389 1381 1380 1379 1378 1376 1370 1369 1372 1375 1374 1375 1374 1377 1381 1392 1403 1411 1421 1430 1438
1426 1423 1420 1417 1414 1411 1409 1406 1403 1401 1398 1395 1394 1392 1390 1390 1388 1388 1387 1385 1384 1384 1383 1381 1372 1374 1372 1374 1371 1365 1362 1362 1366 1371 1359 1365 1368 1377 1389 1398 1408 1418 1425
1420 1417 1414 1410 1407 1404 1401 1398 1395 1392 1389 1386 1384 1382 1381 1380 1379 1378 1378 1377 1377 1376 1376 1375 1369 1369 1367 1362 1361 1358 1349 1355 1360 1356 1359 1356 1360 1367 1376 1386 1397 1405 1414
1414 1411 1407 1404 1401 1398 1394 1391 1387 1382 1379 1376 1374 1372 1371 1370 1369 1369 1369 1368 1369 1369 1368 1368 1365 1365 1364 1362 1362 1360 1360 1356 1351 1353 1351 1352 1357 1360 1366 1374 1385 1393 1402
1409 1405 1402 1399 1395 1392 1389 1385 1381 1375 1369 1365 1362 1361 1360 1360 1360 1360 1360 1360 1361 1361 1360 1361 1359 1356 1358 1359 1354 1349 1345 1346 1345 1356 1351 1352 1347 1346 1352 1361 1371 1381 1390
1404 1401 1397 1394 1390 1386 1382 1379 1374 1368 1363 1358 1354 1351 1351 1350 1351 1350 1351 1351 1351 1352 1352 1353 1352 1349 1350 1355 1358 1356 1351 1350 1346 1342 1342 1340 1344 1343 1344 1349 1360 1369 1377
1399 1396 1392 1389 1384 1380 1376 1372 1367 1361 1355 1349 1345 1344 1343 1342 1342 1342 1342 1342 1341 1342 1342 1343 1342 1342 1342 1343 1347 1353 1352 1352 1346 1343 1345 1343 1339 1337 1333 1337 1346 1356 1366
1395 1391 1387 1384 1379 1375 1371 1367 1362 1356 1350 1345 1340 1338 1336 1335 1334 1336 1335 1334 1334 1333 1335 1335 1334 1334 1336 1336 1335 1333 1338 1341 1337 1338 1339 1336 1327 1339 1328 1329 1334 1340 1354
1390 1386 1382 1379 1374 1370 1366 1362 1357 1352 1346 1341 1336 1332 1329 1327 1325 1326 1327 1327 1327 1326 1328 1328 1327 1327 1328 1328 1330 1330 1328 1333 1336 1335 1327 1329 1328 1332 1321 1327 1324 1334 1342